Weather History for Rotterdam, Netherlands

Change the Weather History Date:

Tuesday, September 11, 2012

  Actual Average Record
Temperature  
Mean Temperature 58 °F -  
Max Temperature 65 °F 61 °F 84 °F (1999)
Min Temperature 51 °F 49 °F 46 °F (2014)
Degree Days  
Heating Degree Days 7    
Growing Degree Days 8 (Base 50)    
Moisture  
Dew Point 55 °F    
Average Humidity 77    
Maximum Humidity 94    
Minimum Humidity 54    
Precipitation  
Precipitation 0.02 in - - ()
Sea Level Pressure  
Sea Level Pressure 29.85 in    
Wind  
Wind Speed 9 mph ()    
Max Wind Speed 16 mph    
Max Gust Speed -    
Visibility 6.6 miles    
Events Rain    
Averages and records for this station are not official NWS values.
T = Trace of Precipitation, MM = Missing Value Source: Averaged Metar Reports

Daily Weather History Graph

Daily Weather History Graph

Search for Another Location

Airport:

Trip Planner

Search our weather history database for the weather conditions in past years. The results will help you decide how hot, cold, wet, or windy it might be!

Date:

Astronomy

Sep. 11, 2012 Rise Set
Actual Time 7:10 AM CEST 8:05 PM CEST
Civil Twilight 6:36 AM CEST 8:39 PM CEST
Nautical Twilight 5:55 AM CEST 9:20 PM CEST
Astronomical Twilight 5:10 AM CEST 10:04 PM CEST
Moon 1:43 AM CEST (9/11) 5:31 PM CEST (9/11)
Length of Visible Light 14h 03m
Length of Day
12h 54m
Waning Crescent, 24% of the Moon is Illuminated
Sep 11
Waning Crescent
Sep 16
New
Sep 22
First Quarter
Sep 30
Full
Oct 8
Last Quarter

Hourly Weather History & Observations

Time (CEST) Temp. Dew Point Humidity Pressure Visibility Wind Dir Wind Speed Gust Speed Precip Events Conditions
12:25 AM 64.4 °F 59.0 °F 83% 29.86 in 6.2 mi SW 8.1 mph - N/A   Unknown
12:55 AM 64.4 °F 59.0 °F 83% 29.86 in 6.2 mi SSW 8.1 mph - N/A   Mostly Cloudy
1:25 AM 64.4 °F 59.0 °F 83% 29.86 in 6.2 mi SSW 9.2 mph - N/A   Partly Cloudy
1:55 AM 64.4 °F 60.8 °F 88% 29.86 in 6.2 mi SSW 5.8 mph - N/A   Mostly Cloudy
2:00 AM 64 °F 59 °F 79% 29.86 in 25 mi SSW 8.9 mph - -   Partly Cloudy
2:25 AM 62.6 °F 59.0 °F 88% 29.83 in 6.2 mi SSW 6.9 mph - N/A   Partly Cloudy
2:55 AM 62.6 °F 60.8 °F 94% 29.83 in 6.2 mi SSW 8.1 mph - N/A   Unknown
3:25 AM 64.4 °F 59.0 °F 83% 29.83 in 6.2 mi SW 11.5 mph - N/A   Mostly Cloudy
3:55 AM 64.4 °F 57.2 °F 77% 29.83 in 6.2 mi SSW 11.5 mph - N/A   Overcast
4:25 AM 64.4 °F 57.2 °F 77% 29.83 in 6.2 mi SW 13.8 mph - N/A   Overcast
4:55 AM 64.4 °F 57.2 °F 77% 29.83 in 6.2 mi SW 12.7 mph - N/A   Mostly Cloudy
5:00 AM 65 °F 58 °F 70% 29.84 in 25 mi SW 13.4 mph - - Rain Rain
5:25 AM 64.4 °F 57.2 °F 77% 29.83 in 6.2 mi SW 11.5 mph - N/A   Overcast
5:55 AM 64.4 °F 57.2 °F 77% 29.80 in 6.2 mi SW 12.7 mph - N/A   Mostly Cloudy
6:25 AM 64.4 °F 57.2 °F 77% 29.80 in 6.2 mi SW 12.7 mph - N/A   Unknown
6:55 AM 62.6 °F 57.2 °F 82% 29.80 in 6.2 mi SW 12.7 mph - N/A   Mostly Cloudy
7:25 AM 64.4 °F 57.2 °F 77% 29.80 in 6.2 mi SW 10.4 mph - N/A   Partly Cloudy
7:55 AM 64.4 °F 57.2 °F 77% 29.80 in 6.2 mi SSW 11.5 mph - N/A   Partly Cloudy
8:00 AM 64 °F 57 °F 73% 29.82 in 19 mi SW 11.2 mph - -   Partly Cloudy
8:25 AM 62.6 °F 57.2 °F 82% 29.80 in 6.2 mi SW 12.7 mph - N/A   Scattered Clouds
8:55 AM 62.6 °F 57.2 °F 82% 29.80 in 6.2 mi SW 15.0 mph - N/A   Scattered Clouds
9:25 AM 62.6 °F 57.2 °F 82% 29.80 in 6.2 mi SW 16.1 mph - N/A   Unknown
9:55 AM 62.6 °F 59.0 °F 88% 29.80 in 6.2 mi SW 16.1 mph - N/A Rain Light Rain
10:25 AM 62.6 °F 60.8 °F 94% 29.80 in 6.2 mi SW 13.8 mph - N/A Rain Light Rain
10:55 AM 62.6 °F 60.8 °F 94% 29.80 in 6.2 mi SSW 12.7 mph - N/A   Mostly Cloudy
11:00 AM 63 °F 60 °F 85% 29.82 in 16 mi SW 13.4 mph - - Rain Light Rain Showers
11:25 AM 62.6 °F 59.0 °F 88% 29.80 in 6.2 mi SSW 13.8 mph - N/A Rain Light Rain
11:55 AM 60.8 °F 59.0 °F 94% 29.83 in 6.2 mi West 11.5 mph - N/A   Mostly Cloudy
12:25 PM 60.8 °F 59.0 °F 94% 29.83 in 5.0 mi West 9.2 mph - N/A Rain Light Rain
12:55 PM 60.8 °F 59.0 °F 94% 29.83 in 6.2 mi West 10.4 mph - N/A   Mostly Cloudy
1:25 PM 62.6 °F 55.4 °F 77% 29.83 in 6.2 mi WSW 9.2 mph - N/A   Mostly Cloudy
1:55 PM 62.6 °F 55.4 °F 77% 29.83 in 6.2 mi West 13.8 mph - N/A   Mostly Cloudy
2:00 PM 63 °F 55 °F 69% 29.86 in 25 mi West 13.4 mph - -   Partly Cloudy
2:25 PM 66.2 °F 57.2 °F 73% 29.83 in 6.2 mi WNW 11.5 mph - N/A   Scattered Clouds
2:55 PM 62.6 °F 53.6 °F 72% 29.86 in 6.2 mi WNW 13.8 mph - N/A   Mostly Cloudy
3:25 PM 64.4 °F 50.0 °F 59% 29.86 in 6.2 mi WNW 13.8 mph - N/A   Partly Cloudy
3:55 PM 64.4 °F 51.8 °F 64% 29.86 in 6.2 mi West 15.0 mph - N/A   Partly Cloudy
4:25 PM 62.6 °F 50.0 °F 63% 29.86 in 6.2 mi West 13.8 mph - N/A   Partly Cloudy
4:55 PM 62.6 °F 50.0 °F 63% 29.86 in 6.2 mi West 10.4 mph - N/A   Partly Cloudy
5:00 PM 64 °F 51 °F 54% 29.89 in 25 mi West 11.2 mph - -   Partly Cloudy
5:25 PM 62.6 °F 50.0 °F 63% 29.89 in 6.2 mi West 13.8 mph - N/A   Partly Cloudy
5:55 PM 62.6 °F 50.0 °F 63% 29.89 in 6.2 mi West 9.2 mph - N/A   Partly Cloudy
6:25 PM 62.6 °F 48.2 °F 59% 29.89 in 6.2 mi WNW 10.4 mph - N/A   Unknown
6:55 PM 60.8 °F 48.2 °F 63% 29.89 in 6.2 mi West 9.2 mph - N/A   Partly Cloudy
7:25 PM 59.0 °F 50.0 °F 72% 29.89 in 6.2 mi West 4.6 mph - N/A   Scattered Clouds
7:55 PM 59.0 °F 50.0 °F 72% 29.89 in 6.2 mi West 4.6 mph - N/A   Scattered Clouds
8:00 PM 59 °F 48 °F 59% 29.91 in 28 mi WNW 6.7 mph - -   Partly Cloudy
8:25 PM 57.2 °F 48.2 °F 72% 29.89 in 6.2 mi WNW 5.8 mph - N/A   Unknown
8:55 PM 55.4 °F 46.4 °F 72% 29.92 in 6.2 mi NW 4.6 mph - N/A   Unknown
9:25 PM 53.6 °F 46.4 °F 77% 29.92 in 6.2 mi WNW 3.5 mph - N/A   Unknown
9:55 PM 53.6 °F 46.4 °F 77% 29.92 in 6.2 mi Variable 2.3 mph - N/A   Unknown
10:25 PM 53.6 °F 46.4 °F 77% 29.92 in 6.2 mi Variable 2.3 mph - N/A   Unknown
10:55 PM 53.6 °F 48.2 °F 82% 29.92 in 6.2 mi SW 3.5 mph - N/A   Unknown
11:00 PM 53 °F 48 °F 77% 29.93 in 28 mi SW 4.5 mph - -   Overcast
11:25 PM 51.8 °F 50.0 °F 94% 29.92 in 6.2 mi SSE 3.5 mph - N/A   Unknown
11:55 PM 53.6 °F 48.2 °F 82% 29.92 in 6.2 mi Variable 1.2 mph - N/A   Unknown